Location: Calvatone
(45.1167°N, 10.4333°E)
Time: 11:12:12
(UTC+00:00)

ATLAS 5 CENTAUR R/B - Pass Details

Date: 28 January 2023
Orbit: 460 x 1178 km, 63.3° (Epoch: 24 March)

Event Time Altitude Azimuth Distance (km) Brightness Sun altitude
Rises 17:12:23 0° 256° (WSW) 2,511 7.1 -9.5°
Reaches altitude 10° 17:14:47 10° 273° (W) 1,683 5.1 -9.9°
Maximum altitude 17:17:42 21° 325° (NW) 1,205 3.3 -10.4°
Drops below altitude 10° 17:20:56 10° 16° (NNE) 1,885 3.7 -11.0°
Enters shadow 17:22:25 - 26° (NNE) 2,401 4.2 -11.2°
